User: anonymous   Login
Location: Helsinki
(60.1699°N, 24.9384°E)
Time: 03:28:21
(UTC+02:00)
Language:

Courier 1B - Orbit

View from above orbital plane
View from above orbital plane
View from above satellite
View from above satellite

Ground track
Ground track

The orbit data is extracted from the following two-line orbital elements,

1    58U 60013A   20300.29996305  .00000092  00000-0  13345-4 0  9992
2    58  28.3255 150.8105 0164930  72.5716 289.2789 13.46323711956793
Epoch (UTC): 26 October 2020 07:11:56
Eccentricity: 0.0164930
inclination: 28.3255°
perigee height: 963 km
apogee height: 1209 km
right ascension of ascending node: 150.8105°
argument of perigee: 72.5716°
revolutions per day: 13.46323711
mean anomaly at epoch: 289.2789°
orbit number at epoch: 95679

The dashed part of the orbit path shows where the satellite is in the earth's shadow,  

DLR